Waarnemingen

Advertentie
Mijn weer
Hoorn-A, Nederland (6212): temperatuur & dauwpunt: 15.09.2018 00:00:00 - 21.09.2018 00:00:00 (CEST)Hoorn-A, Nederland (6212): windsnelheid & windstoten: 15.09.2018 00:00:00 - 21.09.2018 00:00:00 (CEST)Hoorn-A, Nederland (6212): windrichting: 15.09.2018 00:00:00 - 21.09.2018 00:00:00 (CEST)Hoorn-A, Nederland (6212): luchtdruk: 15.09.2018 00:00:00 - 21.09.2018 00:00:00 (CEST)Hoorn-A, Nederland (6212): zicht: 15.09.2018 00:00:00 - 21.09.2018 00:00:00 (CEST)
Datum & Tijd tt [°C] td [°C] ff [km/u] ff [kn] fx [km/u] fx [kn] dd ppp [hPa] vv [km]
21.09.2018 00:00:00 - - - - - - - - -
20.09.2018 23:00:00 - - - - - - - - -
20.09.2018 22:00:00 - - - - - - - - -
20.09.2018 21:00:00 - - - - - - - - -
20.09.2018 20:00:00 - - - - - - - - -
20.09.2018 19:00:00 - - - - - - - - -
20.09.2018 18:00:00 - - - - - - - - -
20.09.2018 17:00:00 - - - - - - - - -
20.09.2018 16:00:00 - - - - - - - - -
20.09.2018 15:00:00 - - - - - - - - -
20.09.2018 14:00:00 - - - - - - - - -
20.09.2018 13:00:00 - - - - - - - - -
20.09.2018 12:00:00 - - - - - - - - -
20.09.2018 11:00:00 - - - - - - - - -
20.09.2018 10:00:00 - - - - - - - - -
20.09.2018 09:00:00 - - - - - - - - -
20.09.2018 08:00:00 - - - - - - - - -
20.09.2018 07:00:00 - - - - - - - - -
20.09.2018 06:00:00 - - - - - - - - -
20.09.2018 05:00:00 - - - - - - - - -
20.09.2018 04:00:00 - - - - - - - - -
20.09.2018 03:00:00 - - - - - - - - -
20.09.2018 02:00:00 - - - - - - - - -
20.09.2018 01:00:00 - - - - - - - - -
20.09.2018 00:00:00 - - - - - - - - -
19.09.2018 23:00:00 - - - - - - - - -
19.09.2018 22:00:00 - - - - - - - - -
19.09.2018 21:00:00 - - - - - - - - -
19.09.2018 20:00:00 - - - - - - - - -
19.09.2018 19:00:00 - - - - - - - - -
19.09.2018 18:00:00 - - - - - - - - -
19.09.2018 17:00:00 - - - - - - - - -
19.09.2018 16:00:00 - - - - - - - - -
19.09.2018 15:00:00 - - - - - - - - -
19.09.2018 14:00:00 - - - - - - - - -
19.09.2018 13:00:00 - - - - - - - - -
19.09.2018 12:00:00 - - - - - - - - -
19.09.2018 11:00:00 - - - - - - - - -
19.09.2018 10:00:00 - - - - - - - - -
19.09.2018 09:00:00 - - - - - - - - -
19.09.2018 08:00:00 - - - - - - - - -
19.09.2018 07:00:00 - - - - - - - - -
19.09.2018 06:00:00 - - - - - - - - -
19.09.2018 05:00:00 - - - - - - - - -
19.09.2018 04:00:00 - - - - - - - - -
19.09.2018 03:00:00 - - - - - - - - -
19.09.2018 02:00:00 - - - - - - - - -
19.09.2018 01:00:00 - - - - - - - - -
19.09.2018 00:00:00 - - - - - - - - -
18.09.2018 23:00:00 - - - - - - - - -
18.09.2018 22:00:00 - - - - - - - - -
18.09.2018 21:00:00 - - - - - - - - -
18.09.2018 20:00:00 - - - - - - - - -
18.09.2018 19:00:00 - - - - - - - - -
18.09.2018 18:00:00 - - - - - - - - -
18.09.2018 17:00:00 - - - - - - - - -
18.09.2018 16:00:00 - - - - - - - - -
18.09.2018 15:00:00 - - - - - - - - -
18.09.2018 14:00:00 - - - - - - - - -
18.09.2018 13:00:00 - - - - - - - - -
18.09.2018 12:00:00 - - - - - - - - -
18.09.2018 11:00:00 - - - - - - - - -
18.09.2018 10:00:00 - - - - - - - - -
18.09.2018 09:00:00 - - - - - - - - -
18.09.2018 08:00:00 - - - - - - - - -
18.09.2018 07:00:00 - - - - - - - - -
18.09.2018 06:00:00 - - - - - - - - -
18.09.2018 05:00:00 - - - - - - - - -
18.09.2018 04:00:00 - - - - - - - - -
18.09.2018 03:00:00 - - - - - - - - -
18.09.2018 02:00:00 - - - - - - - - -
18.09.2018 01:00:00 - - - - - - - - -
18.09.2018 00:00:00 - - - - - - - - -
17.09.2018 23:00:00 - - - - - - - - -
17.09.2018 22:00:00 - - - - - - - - -
17.09.2018 21:00:00 - - - - - - - - -
17.09.2018 20:00:00 - - - - - - - - -
17.09.2018 19:00:00 - - - - - - - - -
17.09.2018 18:00:00 - - - - - - - - -
17.09.2018 17:00:00 - - - - - - - - -
17.09.2018 16:00:00 - - - - - - - - -
17.09.2018 15:00:00 - - - - - - - - -
17.09.2018 14:00:00 - - - - - - - - -
17.09.2018 13:00:00 - - - - - - - - -
17.09.2018 12:00:00 - - - - - - - - -
17.09.2018 11:00:00 - - - - - - - - -
17.09.2018 10:00:00 - - - - - - - - -
17.09.2018 09:00:00 - - - - - - - - -
17.09.2018 08:00:00 17,7 16,2 28 15 29 16 Z 1017,1 10
17.09.2018 07:00:00 17,8 16,3 26 14 29 16 Z 1016,8 10
17.09.2018 06:00:00 17,9 16,2 29 16 29 16 Z 1016,9 10
17.09.2018 05:00:00 18,0 15,6 29 16 29 16 Z 1016,7 10
17.09.2018 04:00:00 18,0 15,4 34 18 32 18 Z 1016,7 10
17.09.2018 03:00:00 18,2 15,1 34 18 36 19 Z 1017,0 10
17.09.2018 02:00:00 18,3 14,9 37 20 40 21 Z 1017,0 10
17.09.2018 01:00:00 18,4 14,5 41 22 40 21 Z 1017,3 10
17.09.2018 00:00:00 18,6 13,9 42 23 43 23 Z 1017,4 10
16.09.2018 23:00:00 19,0 12,8 44 24 43 23 Z 1017,5 10
16.09.2018 22:00:00 18,7 13,8 44 24 43 23 Z 1017,9 10
16.09.2018 21:00:00 18,8 13,2 44 24 43 23 Z 1017,8 10
16.09.2018 20:00:00 18,7 13,4 46 25 43 23 Z 1017,4 10
16.09.2018 19:00:00 18,7 13,6 48 26 50 27 Z 1017,3 10
16.09.2018 18:00:00 18,7 13,4 46 25 50 27 Z 1017,4 10
16.09.2018 17:00:00 18,5 13,5 50 27 50 27 Z 1017,5 10
16.09.2018 16:00:00 18,3 13,6 52 28 50 27 Z 1017,7 10
16.09.2018 15:00:00 18,4 13,5 50 27 50 27 Z 1018,3 10
16.09.2018 14:00:00 18,2 13,1 46 25 47 25 Z 1018,5 10
16.09.2018 13:00:00 17,9 13,2 46 25 47 25 Z 1019,0 10
16.09.2018 12:00:00 17,8 13,2 48 26 47 25 Z 1019,4 10
16.09.2018 11:00:00 17,6 13,4 44 24 43 23 Z 1019,9 10
16.09.2018 10:00:00 17,3 12,6 46 25 43 23 Z 1020,0 10
16.09.2018 09:00:00 17,1 12,6 44 24 43 23 Z 1019,8 10
16.09.2018 08:00:00 17,1 12,4 44 24 43 23 Z 1019,8 10
16.09.2018 07:00:00 17,2 12,4 41 22 40 21 Z 1019,9 10
16.09.2018 06:00:00 17,3 13,1 39 21 40 21 Z 1020,2 10
16.09.2018 05:00:00 17,4 13,0 37 20 36 19 Z 1020,6 10
16.09.2018 04:00:00 17,5 13,4 39 21 36 19 Z 1021,0 10
16.09.2018 03:00:00 17,8 12,4 35 19 32 18 Z 1021,7 10
16.09.2018 02:00:00 17,6 13,3 34 18 32 18 Z 1022,2 10
16.09.2018 01:00:00 17,5 13,5 29 16 29 16 Z 1023,0 10
16.09.2018 00:00:00 17,3 12,9 28 15 29 16 Z 1023,4 10
15.09.2018 23:00:00 17,3 12,6 28 15 25 14 Z 1023,5 10
15.09.2018 22:00:00 17,1 11,7 22 12 22 12 Z 1023,8 10
15.09.2018 21:00:00 16,9 11,4 18 10 22 12 Z 1023,7 10
15.09.2018 20:00:00 16,7 11,4 18 10 22 12 Z 1023,3 10
15.09.2018 19:00:00 16,6 11,1 22 12 22 12 Z 1023,2 10
15.09.2018 18:00:00 16,5 10,8 26 14 29 16 ZZW 1023,4 10
15.09.2018 17:00:00 16,4 11,3 26 14 29 16 ZW 1023,6 10
15.09.2018 16:00:00 16,2 11,3 26 14 32 18 ZW 1023,6 10
15.09.2018 15:00:00 16,2 11,0 31 17 32 18 ZW 1023,4 10
15.09.2018 14:00:00 16,1 11,2 29 16 32 18 W 1022,9 10
15.09.2018 13:00:00 16,1 11,0 31 17 36 19 W 1023,0 10
15.09.2018 12:00:00 15,8 10,9 28 15 29 16 ZW 1022,6 10
15.09.2018 11:00:00 15,8 11,4 29 16 32 18 W 1022,4 10
15.09.2018 10:00:00 15,8 10,2 35 19 32 18 W 1021,7 10
15.09.2018 09:00:00 15,9 10,8 34 18 36 19 WNW 1020,9 10
15.09.2018 08:00:00 15,8 11,0 39 21 40 21 WNW 1020,2 10
15.09.2018 07:00:00 15,8 10,3 39 21 40 21 WNW 1019,5 10
15.09.2018 06:00:00 16,0 10,8 41 22 43 23 WNW 1018,8 10
15.09.2018 05:00:00 15,9 11,9 39 21 40 21 WNW 1018,5 9
15.09.2018 04:00:00 16,2 12,1 42 23 40 21 W 1018,5 10
15.09.2018 03:00:00 16,7 12,0 41 22 43 23 W 1018,4 10
15.09.2018 02:00:00 17,1 12,2 46 25 47 25 ZW 1018,1 10
15.09.2018 01:00:00 17,5 11,5 46 25 47 25 ZW 1017,9 10
15.09.2018 00:00:00 17,6 11,7 37 20 40 21 ZW 1018,1 10

tt = temperatuur
td = dauwpunt
ff = windsnelheid
fx = windstoten
dd = windrichting
ppp = luchtdruk
vv = zicht

Weerstations in de omgeving